Regional Weather Roundup
Issued by NWS

Home | Current Version | Previous Version | Graphics & Text | Print | Product List | Glossary On
Versions: 1 2 3 4 5 6 7 8 9 10 11 12 13 14 15 16 17 18 19 20 21 22 23 24 25 26 27 28 29 30 31 32 33 34 35 36 37 38 39 40 41 42 43 44 45 46 47 48 49 50
000
ASUS45 KBOU 131110
RWRCO

WEATHER ROUNDUP FOR COLORADO
NATIONAL WEATHER SERVICE DENVER/BOULDER CO
500 AM MDT SUN JUL 13 2014

NOTE: "FAIR" INDICATES FEW OR NO CLOUDS BELOW 12000 FEET WITH NO
SIGNIFICANT WEATHER AND/OR OBSTRUCTIONS TO VISIBILITY.

COZ001>005-013-030-031-131200-
...NORTHWEST COLORADO...

CITY           SKY/WX    TMP DP  RH WIND       PRES   REMARKS
CRAIG          CLEAR     48  32  53 CALM      30.35R
HAYDEN         CLEAR     57  48  72 E7        30.36S
MEEKER         CLEAR     56  49  77 E3        30.35R
MOUNT WERNER   NOT AVBL
STEAMBOAT SPGS PTCLDY    54  47  79 CALM      30.39S
WALDEN         PTCLDY    43  37  81 SE7       30.49S
$$

COZ006>008-011-131200-
...WEST CENTRAL VALLEYS...

CITY           SKY/WX    TMP DP  RH WIND       PRES   REMARKS
GRAND JUNCTION CLEAR     72  50  45 SE9       30.20R
MONTROSE       MOCLDY    63  48  58 S3        30.30R
EAGLE          PTCLDY    57  54  88 CALM      30.40S
RIFLE          CLEAR     62  54  74 SE3       30.28R
DELTA          MOCLDY    66  54  64 CALM      30.25S
NUCLA          MOCLDY    66  46  48 NE7       30.31S
$$

COZ017>023-064>068-131200-
...SOUTHWEST COLORADO...

CITY           SKY/WX    TMP DP  RH WIND       PRES   REMARKS
DURANGO        PTCLDY    57  51  80 CALM      30.36R
CORTEZ         CLEAR     59  53  80 CALM      30.29R
PAGOSA SPRINGS CLOUDY    61  48  62 NE3       30.44S
TELLURIDE      PTCLDY    55  46  71 SE6       30.53S
WOLF CREEK PAS NOT AVBL
$$

COZ009-010-012-014-032>034-037-058>063-131200-
...CENTRAL COLORADO...

CITY           SKY/WX    TMP DP  RH WIND       PRES   REMARKS
ASPEN          PTCLDY    52  47  83 S5        30.45R
BUENA VISTA    CLOUDY    54  51  89 NW8       30.50F
COPPER MTN     PTCLDY    52  41  66 S10       30.75S
BERTHOUD PASS  FAIR      39  27  60 MISG      30.80R
COTTONWOOD PAS CLOUDY    54  45  71 W9        30.61F
GUNNISON       PTCLDY    52  46  82 NE5       30.50S
KREMMLING      PTCLDY    52  46  82 CALM      30.47S
LEADVILLE      CLOUDY    45  44  97 NE3       30.61S
MONARCH PASS   PTCLDY    45  39  81 SW7       30.84F
SALIDA         CLEAR     53  50  87 W6        30.55R
SUNLIGHT       PTCLDY    52  48  87 NE3       30.67S
WILKERSON PASS CLEAR     45  43  93 CALM      30.73S
$$

COZ069>075-131200-
...SAN LUIS VALLEY/SANGRE DE CRISTO MOUNTAINS...

CITY           SKY/WX    TMP DP  RH WIND       PRES   REMARKS
ALAMOSA        CLOUDY    57  50  77 SW6       30.44S
LA VETA PASS   CLOUDY    50  43  76 W3        30.63R
SAGUACHE       NOT AVBL
$$

COZ035-036-038>040-131200-
...NORTHERN COLORADO FRONT RANGE...

CITY           SKY/WX    TMP DP  RH WIND       PRES   REMARKS
DENVER INTL AP PTCLDY    60  57  89 SW8       30.33S
DMNS CITY PARK   N/A     60  57  92 SE3       30.33S
AURORA         PTCLDY    60  58  94 SW5       30.35S
FRONT RANGE AP NOT AVBL
ERIE MUNI ARPT CLEAR     57  56  95 CALM      30.32R
BOULDER MUN AP CLEAR     61  54  77 N5        30.33R
CENTENNIAL     MOCLDY    61  55  81 W7        30.36S
BROOMFIELD     CLEAR     63  54  72 CALM      30.35R
FORT COLLINS   CLEAR     59  55  88 CALM      30.31F
LONGMONT       CLEAR     59  56  88 CALM      30.33S
$$

COZ041-046-047-076>085-087-088-131200-
...PIKES PEAK/PALMER DIVIDE AND SOUTHERN FOOTHILLS...

CITY           SKY/WX    TMP DP  RH WIND       PRES   REMARKS
COLO. SPRINGS  MOCLDY    60  55  83 N5        30.38S
A. F. ACADEMY  CLEAR     56  56 100 N8        30.40S
ELLICOTT       MOCLDY    60  56  86 NE8       30.36S
FALCON         PTCLDY    57  53  86 NW5       30.42S
FORT CARSON    PTCLDY    59  57  94 NW10      30.35S
LIMON          LGT RAIN  61  60  97 CALM      30.34R
MONUMENT HILL  PTCLDY    54  52  94 W6        30.43R
TRINIDAD       LGT RAIN  62  59  90 SW6       30.34S
$$

COZ042>045-048>051-090-091-131200-
...NORTHEAST COLORADO...

CITY           SKY/WX    TMP DP  RH WIND       PRES   REMARKS
GREELEY ARPT   NOT AVBL
AKRON          PTCLDY    61  59  93 W6        30.29R
BURLINGTON     CLOUDY    65  61  87 CALM      30.25S
WRAY           PTCLDY   N/A N/A N/A CALM      30.24S
STERLING       PTCLDY    63  63 100 CALM      30.25R FOG
HOLYOKE        PTCLDY    61  59  94 W3        30.24R
FORT MORGAN    PTCLDY    61  56  84 S3        30.29R
$$

COZ086-089-092>099-131200-
...SOUTHEAST COLORADO...

CITY           SKY/WX    TMP DP  RH WIND       PRES   REMARKS
PUEBLO         MOCLDY    63  61  93 SW3       30.28S
LA JUNTA       CLOUDY    66  64  93 NW9       30.25S
LAMAR          CLOUDY    67  64  90 W14       30.21R
SPRINGFIELD      N/A     64  60  87 NW9       30.25F
$$



USA.gov is the U.S. government's official web portal to all federal, state and local government web resources and services.